| time (UTC) | temp F | wind direction | speed MPH | gust MPH | rain 1hr in | rain 24hr in | rain mn in | humidity % | barometer mb |
| 20260508025524 | 62 | 217 | 1.0 | 6.0 | 0.00 | 0.00 | 0.00 | 69 | 1016.7 |
| 20260508025026 | 62 | 244 | 2.0 | 6.0 | 0.00 | 0.00 | 0.00 | 67 | 1016.6 |
| 20260508024546 | 63 | 311 | 1.0 | 3.0 | 0.00 | 0.00 | 0.00 | 66 | 1016.6 |
| 20260508024026 | 64 | 270 | 0.0 | 8.0 | 0.00 | 0.00 | 0.00 | 65 | 1016.5 |
| 20260508023528 | 65 | 281 | 2.0 | 8.0 | 0.00 | 0.00 | 0.00 | 63 | 1016.5 |
| 20260508023041 | 66 | 277 | 3.0 | 9.0 | 0.00 | 0.00 | 0.00 | 60 | 1016.6 |
| 20260508022526 | 67 | 341 | 3.0 | 9.0 | 0.00 | 0.00 | 0.00 | 58 | 1016.5 |
| 20260508022026 | 69 | 294 | 1.0 | 4.0 | 0.00 | 0.00 | 0.00 | 55 | 1016.5 |
| 20260508021540 | 70 | 172 | 0.0 | 1.0 | 0.00 | 0.00 | 0.00 | 54 | 1016.4 |
| 20260508021025 | 69 | 142 | 0.0 | 3.0 | 0.00 | 0.00 | 0.00 | 56 | 1016.5 |
| 20260508020627 | 68 | 142 | 1.0 | 3.0 | 0.00 | 0.00 | 0.00 | 55 | 1016.6 |
| 20260508020045 | 67 | 0 | 0.0 | 3.0 | 0.00 | 0.00 | 0.00 | 56 | 1016.6 |
| 20260508015525 | 67 | 92 | 0.0 | 3.0 | 0.00 | 0.00 | 0.00 | 56 | 1016.6 |
| 20260508015025 | 67 | 10 | 1.0 | 9.0 | 0.00 | 0.00 | 0.00 | 56 | 1016.6 |
| 20260508014541 | 67 | 16 | 2.0 | 9.0 | 0.00 | 0.00 | 0.00 | 56 | 1016.7 |
| 20260508014026 | 68 | 338 | 2.0 | 7.0 | 0.00 | 0.00 | 0.00 | 55 | 1016.7 |
| 20260508013527 | 69 | 336 | 3.0 | 7.0 | 0.00 | 0.00 | 0.00 | 55 | 1016.8 |
| 20260508013048 | 69 | 331 | 0.0 | 3.0 | 0.00 | 0.00 | 0.00 | 57 | 1016.8 |
| 20260508012525 | 69 | 309 | 1.0 | 4.0 | 0.00 | 0.00 | 0.00 | 53 | 1017.0 |
| 20260508012026 | 69 | 319 | 1.0 | 4.0 | 0.00 | 0.00 | 0.00 | 54 | 1017.0 |
| 20260508011551 | 70 | 0 | 0.0 | 2.0 | 0.00 | 0.00 | 0.00 | 53 | 1017.0 |
| 20260508011025 | 69 | 157 | 0.0 | 3.0 | 0.00 | 0.00 | 0.00 | 59 | 1017.0 |
| 20260508010525 | 68 | 138 | 0.0 | 3.0 | 0.00 | 0.00 | 0.00 | 56 | 1017.1 |
| 20260508010042 | 67 | 115 | 2.0 | 3.0 | 0.00 | 0.00 | 0.00 | 55 | 1017.1 |
| 20260508005526 | 67 | 94 | 0.0 | 7.0 | 0.00 | 0.00 | 0.00 | 56 | 1017.1 |
| 20260508005028 | 68 | 98 | 3.0 | 7.0 | 0.00 | 0.00 | 0.00 | 56 | 1017.2 |
| 20260508004543 | 69 | 109 | 0.0 | 3.0 | 0.00 | 0.00 | 0.00 | 56 | 1017.2 |
| 20260508004026 | 69 | 342 | 0.0 | 3.0 | 0.00 | 0.00 | 0.00 | 55 | 1017.3 |
| 20260508003525 | 69 | 107 | 1.0 | 3.0 | 0.00 | 0.00 | 0.00 | 53 | 1017.3 |
| 20260508003041 | 69 | 104 | 1.0 | 5.0 | 0.00 | 0.00 | 0.00 | 54 | 1017.3 |
| 20260508002525 | 68 | 257 | 1.0 | 5.0 | 0.00 | 0.00 | 0.00 | 55 | 1017.4 |
| 20260508002026 | 68 | 199 | 2.0 | 5.0 | 0.00 | 0.00 | 0.00 | 56 | 1017.5 |
| 20260508001542 | 69 | 246 | 3.0 | 5.0 | 0.00 | 0.00 | 0.00 | 54 | 1017.6 |
| 20260508001025 | 70 | 174 | 0.0 | 3.0 | 0.00 | 0.00 | 0.00 | 53 | 1017.4 |
| 20260508000526 | 69 | 266 | 0.0 | 3.0 | 0.00 | 0.00 | 0.00 | 58 | 1017.6 |
| 20260508000038 | 68 | 229 | 1.0 | 4.0 | 0.00 | 0.00 | 0.00 | 54 | 1017.6 |
| 20260507235525 | 68 | 245 | 0.0 | 4.0 | 0.00 | 0.00 | 0.00 | 57 | 1017.6 |
| 20260507235025 | 67 | 238 | 2.0 | 4.0 | 0.00 | 0.00 | 0.00 | 55 | 1017.6 |
| 20260507234541 | 67 | 0 | 1.0 | 5.0 | 0.00 | 0.00 | 0.00 | 55 | 1017.7 |
| 20260507234025 | 67 | 138 | 2.0 | 5.0 | 0.00 | 0.00 | 0.00 | 56 | 1017.8 |
| 20260507233526 | 67 | 150 | 3.0 | 5.0 | 0.00 | 0.00 | 0.00 | 55 | 1017.8 |
| 20260507233054 | 67 | 138 | 1.0 | 3.0 | 0.00 | 0.00 | 0.00 | 55 | 1017.9 |
| 20260507232525 | 67 | 123 | 1.0 | 4.0 | 0.00 | 0.00 | 0.00 | 58 | 1018.0 |
| 20260507232025 | 66 | 0 | 2.0 | 7.0 | 0.00 | 0.00 | 0.00 | 57 | 1018.1 |
| 20260507231540 | 66 | 282 | 2.0 | 7.0 | 0.00 | 0.00 | 0.00 | 56 | 1018.1 |
| 20260507231025 | 66 | 284 | 3.0 | 7.0 | 0.00 | 0.00 | 0.00 | 56 | 1018.1 |
| 20260507230526 | 66 | 242 | 2.0 | 7.0 | 0.00 | 0.00 | 0.00 | 56 | 1018.2 |
| 20260507230040 | 66 | 234 | 2.0 | 7.0 | 0.00 | 0.00 | 0.00 | 58 | 1018.3 |
| 20260507225527 | 66 | 278 | 3.0 | 5.0 | 0.00 | 0.00 | 0.00 | 56 | 1018.3 |
| 20260507225029 | 66 | 289 | 2.0 | 4.0 | 0.00 | 0.00 | 0.00 | 56 | 1018.3 |
| 20260507224553 | 66 | 246 | 1.0 | 4.0 | 0.00 | 0.00 | 0.00 | 57 | 1018.5 |
| 20260507224025 | 66 | 294 | 2.0 | 6.0 | 0.00 | 0.00 | 0.00 | 56 | 1018.6 |
| 20260507223527 | 66 | 227 | 3.0 | 8.0 | 0.00 | 0.00 | 0.00 | 62 | 1018.6 |
| 20260507223042 | 66 | 222 | 4.0 | 8.0 | 0.00 | 0.00 | 0.00 | 57 | 1018.5 |
| 20260507222528 | 67 | 132 | 3.0 | 8.0 | 0.00 | 0.00 | 0.00 | 59 | 1018.6 |
| 20260507222025 | 66 | 67 | 1.0 | 3.0 | 0.00 | 0.00 | 0.00 | 61 | 1018.7 |
| 20260507221540 | 66 | 65 | 1.0 | 8.0 | 0.00 | 0.00 | 0.00 | 58 | 1018.8 |
| 20260507221024 | 65 | 107 | 3.0 | 8.0 | 0.00 | 0.00 | 0.00 | 59 | 1018.9 |
| 20260507220526 | 65 | 173 | 2.0 | 6.0 | 0.00 | 0.00 | 0.00 | 60 | 1019.1 |
| 20260507220042 | 64 | 269 | 2.0 | 4.0 | 0.00 | 0.00 | 0.00 | 60 | 1019.0 |
| 20260507215529 | 64 | 250 | 2.0 | 4.0 | 0.00 | 0.00 | 0.00 | 63 | 1019.2 |
| 20260507215025 | 64 | 241 | 2.0 | 8.0 | 0.00 | 0.00 | 0.00 | 60 | 1019.3 |
| 20260507214541 | 64 | 276 | 3.0 | 8.0 | 0.00 | 0.00 | 0.00 | 64 | 1019.2 |
| 20260507214028 | 64 | 280 | 3.0 | 8.0 | 0.00 | 0.00 | 0.00 | 61 | 1019.2 |
| 20260507213525 | 64 | 42 | 1.0 | 7.0 | 0.00 | 0.00 | 0.00 | 64 | 1019.2 |
| 20260507213041 | 64 | 299 | 2.0 | 7.0 | 0.00 | 0.00 | 0.00 | 62 | 1019.3 |
| 20260507212525 | 64 | 270 | 2.0 | 6.0 | 0.00 | 0.00 | 0.00 | 62 | 1019.2 |
| 20260507212025 | 63 | 60 | 1.0 | 9.0 | 0.00 | 0.00 | 0.00 | 64 | 1019.3 |
| 20260507211542 | 62 | 313 | 4.0 | 9.0 | 0.00 | 0.00 | 0.00 | 63 | 1019.4 |
| 20260507211027 | 62 | 316 | 5.0 | 9.0 | 0.00 | 0.00 | 0.00 | 61 | 1019.3 |
| 20260507210525 | 63 | 294 | 2.0 | 8.0 | 0.00 | 0.00 | 0.00 | 63 | 1019.5 |
| 20260507210049 | 63 | 128 | 1.0 | 6.0 | 0.00 | 0.00 | 0.00 | 62 | 1019.6 |
| 20260507205525 | 63 | 242 | 3.0 | 6.0 | 0.00 | 0.00 | 0.00 | 61 | 1019.7 |
| 20260507205026 | 63 | 76 | 1.0 | 5.0 | 0.00 | 0.00 | 0.00 | 65 | 1019.7 |
| 20260507204545 | 62 | 162 | 2.0 | 8.0 | 0.00 | 0.00 | 0.00 | 64 | 1019.8 |
| 20260507204025 | 62 | 39 | 3.0 | 10.0 | 0.00 | 0.00 | 0.00 | 66 | 1019.9 |
| 20260507203526 | 62 | 345 | 2.0 | 10.0 | 0.00 | 0.00 | 0.00 | 65 | 1020.0 |
| 20260507203043 | 62 | 252 | 4.0 | 10.0 | 0.00 | 0.00 | 0.00 | 65 | 1020.0 |
| 20260507202525 | 62 | 296 | 2.0 | 6.0 | 0.00 | 0.00 | 0.00 | 65 | 1020.1 |
| 20260507202025 | 61 | 255 | 1.0 | 7.0 | 0.00 | 0.00 | 0.00 | 63 | 1020.1 |
| 20260507201540 | 62 | 136 | 2.0 | 8.0 | 0.00 | 0.00 | 0.00 | 63 | 1020.2 |
| 20260507201025 | 62 | 213 | 5.0 | 8.0 | 0.00 | 0.00 | 0.00 | 64 | 1020.1 |
| 20260507200527 | 62 | 157 | 3.0 | 8.0 | 0.00 | 0.00 | 0.00 | 63 | 1020.2 |
| 20260507200048 | 62 | 156 | 2.0 | 10.0 | 0.00 | 0.00 | 0.00 | 66 | 1020.3 |
| 20260507195525 | 62 | 119 | 4.0 | 10.0 | 0.00 | 0.00 | 0.00 | 64 | 1020.3 |
| 20260507195028 | 62 | 128 | 4.0 | 10.0 | 0.00 | 0.00 | 0.00 | 64 | 1020.4 |
| 20260507194613 | 62 | 155 | 3.0 | 10.0 | 0.00 | 0.00 | 0.00 | 67 | 1020.4 |
| 20260507194027 | 61 | 107 | 4.0 | 10.0 | 0.00 | 0.00 | 0.00 | 64 | 1020.5 |
| 20260507193527 | 61 | 240 | 4.0 | 12.0 | 0.00 | 0.00 | 0.00 | 65 | 1020.6 |
| 20260507193043 | 61 | 162 | 7.0 | 12.0 | 0.00 | 0.00 | 0.00 | 65 | 1020.6 |
| 20260507192528 | 61 | 119 | 3.0 | 8.0 | 0.00 | 0.00 | 0.00 | 65 | 1020.7 |
| 20260507192027 | 61 | 123 | 4.0 | 10.0 | 0.00 | 0.00 | 0.00 | 65 | 1020.6 |
| 20260507191540 | 60 | 39 | 3.0 | 10.0 | 0.00 | 0.00 | 0.00 | 71 | 1020.7 |
| 20260507191026 | 60 | 123 | 4.0 | 10.0 | 0.00 | 0.00 | 0.00 | 67 | 1020.7 |
| 20260507190527 | 59 | 122 | 4.0 | 10.0 | 0.00 | 0.00 | 0.00 | 68 | 1020.7 |
| 20260507190048 | 60 | 142 | 6.0 | 11.0 | 0.00 | 0.00 | 0.00 | 69 | 1020.6 |
| 20260507185528 | 60 | 150 | 6.0 | 11.0 | 0.00 | 0.00 | 0.00 | 67 | 1020.8 |
| 20260507185027 | 60 | 124 | 2.0 | 10.0 | 0.00 | 0.00 | 0.00 | 67 | 1020.8 |
| 20260507184540 | 60 | 94 | 3.0 | 10.0 | 0.00 | 0.00 | 0.00 | 66 | 1020.8 |
| 20260507184028 | 58 | 100 | 2.0 | 9.0 | 0.00 | 0.00 | 0.00 | 68 | 1020.8 |
| 20260507183527 | 59 | 98 | 5.0 | 9.0 | 0.00 | 0.00 | 0.00 | 67 | 1020.9 |
| 20260507183047 | 59 | 83 | 5.0 | 10.0 | 0.00 | 0.00 | 0.00 | 65 | 1020.9 |
| 20260507182527 | 60 | 190 | 3.0 | 10.0 | 0.00 | 0.00 | 0.00 | 67 | 1020.9 |
| 20260507182027 | 60 | 72 | 3.0 | 10.0 | 0.00 | 0.00 | 0.00 | 66 | 1020.9 |
| 20260507181551 | 59 | 237 | 3.0 | 7.0 | 0.00 | 0.00 | 0.00 | 70 | 1021.0 |
| 20260507181030 | 59 | 259 | 3.0 | 7.0 | 0.00 | 0.00 | 0.00 | 70 | 1021.0 |
| 20260507180527 | 59 | 157 | 3.0 | 7.0 | 0.00 | 0.00 | 0.00 | 68 | 1021.1 |
| 20260507180042 | 59 | 184 | 1.0 | 9.0 | 0.00 | 0.00 | 0.00 | 70 | 1021.0 |
| 20260507175530 | 58 | 157 | 4.0 | 11.0 | 0.00 | 0.00 | 0.00 | 70 | 1021.1 |
| 20260507175029 | 58 | 229 | 6.0 | 11.0 | 0.00 | 0.00 | 0.00 | 73 | 1021.1 |
| 20260507174552 | 57 | 180 | 4.0 | 8.0 | 0.00 | 0.00 | 0.00 | 71 | 1021.1 |
| 20260507174029 | 57 | 131 | 3.0 | 10.0 | 0.00 | 0.00 | 0.00 | 73 | 1021.1 |
| 20260507173526 | 57 | 227 | 4.0 | 10.0 | 0.00 | 0.00 | 0.00 | 73 | 1021.1 |
| 20260507173103 | 57 | 113 | 4.0 | 10.0 | 0.00 | 0.00 | 0.00 | 72 | 1021.3 |
| 20260507172528 | 56 | 120 | 3.0 | 9.0 | 0.00 | 0.00 | 0.00 | 72 | 1021.1 |
| 20260507172028 | 56 | 121 | 3.0 | 9.0 | 0.00 | 0.00 | 0.00 | 75 | 1021.2 |
| 20260507171546 | 55 | 138 | 4.0 | 9.0 | 0.00 | 0.00 | 0.00 | 73 | 1021.1 |
| 20260507171028 | 55 | 148 | 5.0 | 9.0 | 0.00 | 0.00 | 0.00 | 73 | 1021.2 |
| 20260507170528 | 55 | 119 | 2.0 | 6.0 | 0.00 | 0.00 | 0.00 | 75 | 1021.3 |
| 20260507170100 | 55 | 153 | 3.0 | 7.0 | 0.00 | 0.00 | 0.00 | 76 | 1021.4 |
| 20260507165527 | 54 | 113 | 4.0 | 7.0 | 0.00 | 0.00 | 0.00 | 75 | 1021.3 |
| 20260507165027 | 54 | 122 | 3.0 | 7.0 | 0.00 | 0.00 | 0.00 | 75 | 1021.4 |
| 20260507164549 | 54 | 134 | 4.0 | 7.0 | 0.00 | 0.00 | 0.00 | 76 | 1021.4 |
| 20260507164025 | 54 | 96 | 4.0 | 7.0 | 0.00 | 0.00 | 0.00 | 74 | 1021.4 |
| 20260507163524 | 54 | 163 | 2.0 | 8.0 | 0.00 | 0.00 | 0.00 | 77 | 1021.4 |
| 20260507163041 | 54 | 126 | 2.0 | 8.0 | 0.00 | 0.00 | 0.00 | 75 | 1021.4 |
| 20260507162525 | 55 | 117 | 3.0 | 7.0 | 0.00 | 0.00 | 0.00 | 75 | 1021.3 |
| 20260507162025 | 55 | 158 | 3.0 | 5.0 | 0.00 | 0.00 | 0.00 | 76 | 1021.4 |
| 20260507161556 | 54 | 176 | 1.0 | 5.0 | 0.00 | 0.00 | 0.00 | 78 | 1021.5 |
| 20260507161025 | 54 | 240 | 1.0 | 4.0 | 0.00 | 0.00 | 0.00 | 79 | 1021.5 |
| 20260507160525 | 53 | 234 | 2.0 | 4.0 | 0.00 | 0.00 | 0.00 | 77 | 1021.6 |
| 20260507160042 | 53 | 200 | 1.0 | 4.0 | 0.00 | 0.00 | 0.00 | 79 | 1021.6 |
| 20260507155525 | 53 | 139 | 2.0 | 4.0 | 0.00 | 0.00 | 0.00 | 79 | 1021.6 |
| 20260507155025 | 53 | 168 | 1.0 | 5.0 | 0.00 | 0.00 | 0.00 | 80 | 1021.7 |
| 20260507154542 | 52 | 277 | 2.0 | 5.0 | 0.00 | 0.00 | 0.00 | 79 | 1021.8 |
| 20260507154027 | 52 | 194 | 1.0 | 3.0 | 0.00 | 0.00 | 0.00 | 80 | 1021.7 |
| 20260507153525 | 51 | 248 | 2.0 | 4.0 | 0.00 | 0.00 | 0.00 | 79 | 1021.7 |
| 20260507153045 | 51 | 213 | 2.0 | 4.0 | 0.00 | 0.00 | 0.00 | 81 | 1021.7 |
| 20260507152528 | 51 | 244 | 1.0 | 4.0 | 0.00 | 0.00 | 0.00 | 81 | 1021.7 |
| 20260507152025 | 51 | 238 | 2.0 | 4.0 | 0.00 | 0.00 | 0.00 | 81 | 1021.7 |
| 20260507151541 | 51 | 167 | 1.0 | 3.0 | 0.00 | 0.00 | 0.00 | 82 | 1021.7 |
| 20260507151024 | 51 | 223 | 1.0 | 3.0 | 0.00 | 0.00 | 0.00 | 82 | 1021.6 |
| 20260507150528 | 50 | 208 | 1.0 | 4.0 | 0.00 | 0.00 | 0.00 | 82 | 1021.6 |
| 20260507150042 | 50 | 214 | 1.0 | 6.0 | 0.00 | 0.00 | 0.00 | 83 | 1021.7 |
| 20260507145524 | 50 | 201 | 3.0 | 6.0 | 0.00 | 0.00 | 0.00 | 83 | 1021.7 |
| 20260507145024 | 50 | 190 | 2.0 | 4.0 | 0.00 | 0.00 | 0.00 | 83 | 1021.7 |
| 20260507144542 | 50 | 161 | 2.0 | 4.0 | 0.00 | 0.00 | 0.00 | 84 | 1021.6 |
| 20260507144025 | 50 | 211 | 2.0 | 3.0 | 0.00 | 0.00 | 0.00 | 83 | 1021.6 |
| 20260507143525 | 50 | 223 | 1.0 | 3.0 | 0.00 | 0.00 | 0.00 | 84 | 1021.6 |
| 20260507143044 | 50 | 213 | 1.0 | 4.0 | 0.00 | 0.00 | 0.00 | 85 | 1021.6 |
| 20260507142524 | 49 | 191 | 1.0 | 5.0 | 0.00 | 0.00 | 0.00 | 85 | 1021.6 |
| 20260507142024 | 49 | 164 | 3.0 | 5.0 | 0.00 | 0.00 | 0.00 | 85 | 1021.6 |
| 20260507141604 | 49 | 202 | 3.0 | 6.0 | 0.00 | 0.00 | 0.00 | 85 | 1021.5 |
| 20260507141025 | 49 | 208 | 2.0 | 6.0 | 0.00 | 0.00 | 0.00 | 85 | 1021.5 |
| 20260507140525 | 49 | 162 | 2.0 | 5.0 | 0.00 | 0.00 | 0.00 | 85 | 1021.5 |
| 20260507140044 | 49 | 180 | 2.0 | 5.0 | 0.00 | 0.00 | 0.00 | 85 | 1021.4 |
| 20260507135525 | 49 | 189 | 1.0 | 4.0 | 0.00 | 0.00 | 0.00 | 85 | 1021.5 |
| 20260507135025 | 49 | 207 | 2.0 | 4.0 | 0.00 | 0.00 | 0.00 | 85 | 1021.4 |
| 20260507134544 | 49 | 188 | 1.0 | 5.0 | 0.00 | 0.00 | 0.00 | 85 | 1021.4 |
| 20260507134024 | 49 | 188 | 2.0 | 5.0 | 0.00 | 0.00 | 0.00 | 85 | 1021.3 |
| 20260507133527 | 49 | 149 | 1.0 | 3.0 | 0.00 | 0.00 | 0.00 | 85 | 1021.3 |
| 20260507133042 | 48 | 244 | 2.0 | 5.0 | 0.00 | 0.00 | 0.00 | 86 | 1021.3 |
| 20260507132529 | 48 | 193 | 1.0 | 5.0 | 0.00 | 0.00 | 0.00 | 86 | 1021.1 |
| 20260507132026 | 48 | 200 | 0.0 | 3.0 | 0.00 | 0.00 | 0.00 | 87 | 1021.2 |
| 20260507131539 | 48 | 228 | 0.0 | 3.0 | 0.00 | 0.00 | 0.00 | 86 | 1021.3 |
| 20260507131027 | 48 | 163 | 1.0 | 4.0 | 0.00 | 0.00 | 0.00 | 86 | 1021.2 |
| 20260507130526 | 48 | 177 | 2.0 | 4.0 | 0.00 | 0.00 | 0.00 | 86 | 1021.2 |
| 20260507130039 | 48 | 182 | 2.0 | 4.0 | 0.00 | 0.00 | 0.00 | 86 | 1021.2 |
| 20260507125529 | 48 | 186 | 2.0 | 4.0 | 0.00 | 0.00 | 0.00 | 86 | 1021.1 |
| 20260507125027 | 48 | 175 | 1.0 | 2.0 | 0.00 | 0.00 | 0.00 | 86 | 1021.1 |
| 20260507124547 | 48 | 184 | 0.0 | 2.0 | 0.00 | 0.00 | 0.00 | 86 | 1021.1 |
| 20260507124027 | 48 | 196 | 1.0 | 4.0 | 0.00 | 0.00 | 0.00 | 85 | 1021.1 |
| 20260507123527 | 49 | 205 | 1.0 | 4.0 | 0.00 | 0.00 | 0.00 | 85 | 1021.1 |
| 20260507123045 | 48 | 207 | 1.0 | 4.0 | 0.00 | 0.00 | 0.00 | 86 | 1021.1 |
| 20260507122527 | 48 | 197 | 1.0 | 4.0 | 0.00 | 0.00 | 0.00 | 87 | 1021.2 |
| 20260507122027 | 48 | 177 | 0.0 | 3.0 | 0.00 | 0.00 | 0.00 | 86 | 1021.3 |
| 20260507121544 | 48 | 177 | 1.0 | 3.0 | 0.00 | 0.00 | 0.00 | 86 | 1021.2 |
| 20260507121027 | 48 | 153 | 1.0 | 3.0 | 0.00 | 0.00 | 0.00 | 86 | 1021.3 |
| 20260507120526 | 48 | 164 | 1.0 | 4.0 | 0.00 | 0.00 | 0.00 | 85 | 1021.2 |
| 20260507120046 | 48 | 177 | 2.0 | 5.0 | 0.00 | 0.00 | 0.00 | 85 | 1021.3 |
| 20260507115527 | 49 | 188 | 3.0 | 5.0 | 0.00 | 0.00 | 0.00 | 85 | 1021.4 |
| 20260507115026 | 49 | 151 | 1.0 | 4.0 | 0.00 | 0.00 | 0.00 | 85 | 1021.4 |
| 20260507114542 | 49 | 168 | 2.0 | 4.0 | 0.00 | 0.00 | 0.00 | 85 | 1021.5 |
| 20260507114027 | 49 | 221 | 1.0 | 5.0 | 0.00 | 0.00 | 0.00 | 85 | 1021.5 |
| 20260507113527 | 49 | 201 | 2.0 | 5.0 | 0.00 | 0.00 | 0.00 | 85 | 1021.4 |
| 20260507113046 | 49 | 206 | 2.0 | 4.0 | 0.00 | 0.00 | 0.00 | 85 | 1021.3 |
| 20260507112526 | 49 | 196 | 2.0 | 5.0 | 0.00 | 0.00 | 0.00 | 85 | 1021.4 |
| 20260507112026 | 49 | 193 | 2.0 | 5.0 | 0.00 | 0.00 | 0.00 | 85 | 1021.4 |
| 20260507111539 | 50 | 185 | 2.0 | 4.0 | 0.00 | 0.00 | 0.00 | 85 | 1021.6 |
| 20260507111026 | 50 | 225 | 3.0 | 4.0 | 0.00 | 0.00 | 0.00 | 85 | 1021.6 |
| 20260507110528 | 50 | 180 | 2.0 | 4.0 | 0.00 | 0.00 | 0.00 | 85 | 1021.6 |
| 20260507110046 | 50 | 220 | 2.0 | 5.0 | 0.00 | 0.00 | 0.00 | 85 | 1021.6 |
| 20260507105527 | 50 | 208 | 2.0 | 5.0 | 0.00 | 0.00 | 0.00 | 84 | 1021.7 |
| 20260507105027 | 50 | 227 | 1.0 | 4.0 | 0.00 | 0.00 | 0.00 | 84 | 1021.5 |
| 20260507104542 | 50 | 237 | 2.0 | 4.0 | 0.00 | 0.00 | 0.00 | 85 | 1021.6 |
| 20260507104027 | 50 | 163 | 2.0 | 5.0 | 0.00 | 0.00 | 0.00 | 85 | 1021.6 |
| 20260507103527 | 50 | 215 | 3.0 | 7.0 | 0.00 | 0.00 | 0.00 | 85 | 1021.6 |
| 20260507103041 | 50 | 205 | 4.0 | 7.0 | 0.00 | 0.00 | 0.00 | 85 | 1021.7 |
| 20260507102528 | 50 | 210 | 3.0 | 6.0 | 0.00 | 0.00 | 0.00 | 84 | 1021.6 |
| 20260507102028 | 51 | 211 | 3.0 | 6.0 | 0.00 | 0.00 | 0.00 | 84 | 1021.7 |
| 20260507101541 | 51 | 195 | 2.0 | 6.0 | 0.00 | 0.00 | 0.00 | 84 | 1021.7 |
| 20260507101026 | 51 | 177 | 2.0 | 6.0 | 0.00 | 0.00 | 0.00 | 85 | 1021.7 |
| 20260507100526 | 51 | 209 | 4.0 | 6.0 | 0.00 | 0.00 | 0.00 | 85 | 1021.7 |
| 20260507100042 | 51 | 222 | 3.0 | 6.0 | 0.00 | 0.00 | 0.00 | 84 | 1021.7 |
| 20260507095526 | 51 | 201 | 2.0 | 5.0 | 0.00 | 0.00 | 0.00 | 84 | 1021.8 |
| 20260507095027 | 51 | 216 | 2.0 | 5.0 | 0.00 | 0.00 | 0.00 | 84 | 1021.7 |
| 20260507094544 | 51 | 219 | 3.0 | 5.0 | 0.00 | 0.00 | 0.00 | 84 | 1021.7 |
| 20260507094026 | 51 | 199 | 2.0 | 6.0 | 0.00 | 0.00 | 0.00 | 85 | 1021.8 |
| 20260507093529 | 51 | 196 | 2.0 | 6.0 | 0.00 | 0.00 | 0.00 | 85 | 1021.8 |
| 20260507093044 | 51 | 216 | 2.0 | 6.0 | 0.00 | 0.00 | 0.00 | 84 | 1021.9 |
| 20260507092526 | 51 | 220 | 3.0 | 6.0 | 0.00 | 0.00 | 0.00 | 85 | 1021.9 |
| 20260507092030 | 51 | 184 | 2.0 | 5.0 | 0.00 | 0.00 | 0.00 | 85 | 1021.9 |
| 20260507091545 | 51 | 227 | 3.0 | 5.0 | 0.00 | 0.00 | 0.00 | 85 | 1021.9 |
| 20260507091028 | 51 | 195 | 3.0 | 5.0 | 0.00 | 0.00 | 0.00 | 85 | 1021.8 |
| 20260507090527 | 51 | 196 | 3.0 | 5.0 | 0.00 | 0.00 | 0.00 | 85 | 1021.9 |
| 20260507090044 | 51 | 205 | 2.0 | 7.0 | 0.00 | 0.00 | 0.00 | 85 | 1022.0 |
| 20260507085526 | 51 | 214 | 2.0 | 7.0 | 0.00 | 0.00 | 0.00 | 85 | 1022.0 |
| 20260507085028 | 51 | 196 | 4.0 | 7.0 | 0.00 | 0.00 | 0.00 | 85 | 1022.1 |
| 20260507084540 | 51 | 165 | 4.0 | 7.0 | 0.00 | 0.00 | 0.00 | 85 | 1022.0 |
| 20260507084026 | 51 | 236 | 4.0 | 7.0 | 0.00 | 0.00 | 0.00 | 85 | 1022.0 |
| 20260507083527 | 51 | 199 | 4.0 | 7.0 | 0.00 | 0.00 | 0.00 | 85 | 1022.0 |
| 20260507083040 | 51 | 206 | 4.0 | 7.0 | 0.00 | 0.00 | 0.00 | 85 | 1022.1 |
| 20260507082528 | 51 | 224 | 3.0 | 7.0 | 0.00 | 0.00 | 0.00 | 86 | 1022.1 |
| 20260507082026 | 51 | 221 | 4.0 | 8.0 | 0.00 | 0.00 | 0.00 | 85 | 1022.0 |
| 20260507081544 | 51 | 213 | 4.0 | 8.0 | 0.00 | 0.00 | 0.00 | 85 | 1022.0 |
| 20260507081026 | 51 | 213 | 3.0 | 8.0 | 0.00 | 0.00 | 0.00 | 85 | 1022.0 |
| 20260507080526 | 51 | 216 | 4.0 | 8.0 | 0.00 | 0.00 | 0.00 | 85 | 1021.9 |
| 20260507080044 | 51 | 219 | 5.0 | 8.0 | 0.00 | 0.00 | 0.00 | 85 | 1021.9 |
| 20260507075526 | 51 | 202 | 5.0 | 9.0 | 0.00 | 0.00 | 0.00 | 85 | 1021.9 |
| 20260507075027 | 51 | 215 | 3.0 | 9.0 | 0.00 | 0.00 | 0.00 | 85 | 1022.0 |
| 20260507074543 | 51 | 168 | 3.0 | 8.0 | 0.00 | 0.00 | 0.00 | 85 | 1022.0 |
| 20260507074028 | 52 | 202 | 5.0 | 8.0 | 0.00 | 0.00 | 0.00 | 85 | 1021.9 |
| 20260507073526 | 52 | 216 | 4.0 | 8.0 | 0.00 | 0.00 | 0.00 | 85 | 1022.0 |
| 20260507073050 | 51 | 210 | 3.0 | 7.0 | 0.00 | 0.00 | 0.00 | 85 | 1021.9 |
| 20260507072527 | 52 | 202 | 3.0 | 7.0 | 0.00 | 0.00 | 0.00 | 85 | 1021.9 |
| 20260507072027 | 52 | 219 | 3.0 | 7.0 | 0.00 | 0.00 | 0.00 | 85 | 1021.9 |
| 20260507071540 | 52 | 189 | 4.0 | 7.0 | 0.00 | 0.00 | 0.00 | 84 | 1021.9 |
| 20260507071026 | 52 | 218 | 4.0 | 7.0 | 0.00 | 0.00 | 0.00 | 84 | 1021.9 |
| 20260507070527 | 52 | 202 | 3.0 | 7.0 | 0.00 | 0.00 | 0.00 | 84 | 1021.9 |
| 20260507070043 | 52 | 209 | 4.0 | 7.0 | 0.00 | 0.00 | 0.00 | 85 | 1021.8 |
| 20260507065526 | 52 | 190 | 4.0 | 6.0 | 0.00 | 0.00 | 0.00 | 84 | 1022.0 |
| 20260507065026 | 52 | 198 | 4.0 | 8.0 | 0.00 | 0.00 | 0.00 | 84 | 1022.0 |
| 20260507064546 | 52 | 195 | 4.0 | 8.0 | 0.00 | 0.00 | 0.00 | 84 | 1022.0 |
| 20260507064027 | 52 | 219 | 4.0 | 8.0 | 0.00 | 0.00 | 0.00 | 84 | 1022.0 |
| 20260507063526 | 52 | 197 | 4.0 | 7.0 | 0.00 | 0.00 | 0.00 | 84 | 1022.0 |
| 20260507063046 | 52 | 182 | 2.0 | 6.0 | 0.00 | 0.00 | 0.00 | 84 | 1022.0 |
| 20260507062531 | 52 | 205 | 3.0 | 6.0 | 0.00 | 0.00 | 0.00 | 84 | 1022.0 |
| 20260507062026 | 52 | 211 | 2.0 | 4.0 | 0.00 | 0.00 | 0.00 | 84 | 1022.1 |
| 20260507061542 | 52 | 200 | 2.0 | 5.0 | 0.00 | 0.00 | 0.00 | 84 | 1022.1 |
| 20260507061026 | 52 | 185 | 3.0 | 6.0 | 0.00 | 0.00 | 0.00 | 84 | 1022.2 |
| 20260507060526 | 52 | 189 | 2.0 | 6.0 | 0.00 | 0.00 | 0.00 | 83 | 1022.1 |
| 20260507060043 | 52 | 181 | 2.0 | 6.0 | 0.00 | 0.00 | 0.00 | 82 | 1022.1 |
| 20260507055528 | 52 | 204 | 3.0 | 6.0 | 0.00 | 0.00 | 0.00 | 82 | 1022.1 |
| 20260507055027 | 52 | 184 | 3.0 | 7.0 | 0.00 | 0.00 | 0.00 | 82 | 1022.1 |
| 20260507054540 | 52 | 188 | 4.0 | 7.0 | 0.00 | 0.00 | 0.00 | 82 | 1022.1 |
| 20260507054028 | 52 | 226 | 3.0 | 7.0 | 0.00 | 0.00 | 0.00 | 82 | 1022.2 |
| 20260507053526 | 52 | 217 | 3.0 | 7.0 | 0.00 | 0.00 | 0.00 | 82 | 1022.0 |
| 20260507053041 | 52 | 202 | 3.0 | 7.0 | 0.00 | 0.00 | 0.00 | 82 | 1022.1 |
| 20260507052526 | 52 | 200 | 2.0 | 7.0 | 0.00 | 0.00 | 0.00 | 82 | 1022.1 |
| 20260507052029 | 52 | 211 | 3.0 | 6.0 | 0.00 | 0.00 | 0.00 | 82 | 1022.1 |
| 20260507051540 | 52 | 207 | 3.0 | 5.0 | 0.00 | 0.00 | 0.00 | 82 | 1022.1 |
| 20260507051030 | 52 | 226 | 2.0 | 8.0 | 0.00 | 0.00 | 0.00 | 82 | 1022.2 |
| 20260507050526 | 52 | 194 | 4.0 | 8.0 | 0.00 | 0.00 | 0.00 | 82 | 1022.2 |
| 20260507050045 | 52 | 203 | 3.0 | 7.0 | 0.00 | 0.00 | 0.00 | 82 | 1022.1 |
| 20260507045526 | 52 | 193 | 4.0 | 7.0 | 0.00 | 0.00 | 0.00 | 83 | 1022.3 |
| 20260507045026 | 52 | 159 | 3.0 | 6.0 | 0.00 | 0.00 | 0.00 | 84 | 1022.2 |
| 20260507044542 | 53 | 234 | 3.0 | 6.0 | 0.00 | 0.00 | 0.00 | 84 | 1022.2 |
| 20260507044025 | 53 | 195 | 2.0 | 5.0 | 0.00 | 0.00 | 0.00 | 84 | 1022.3 |
| 20260507043526 | 53 | 203 | 2.0 | 7.0 | 0.00 | 0.00 | 0.00 | 84 | 1022.2 |
| 20260507043044 | 53 | 213 | 4.0 | 7.0 | 0.00 | 0.00 | 0.00 | 84 | 1022.2 |
| 20260507042526 | 53 | 196 | 3.0 | 6.0 | 0.00 | 0.00 | 0.00 | 84 | 1022.1 |
| 20260507042026 | 53 | 242 | 2.0 | 6.0 | 0.00 | 0.00 | 0.00 | 84 | 1022.1 |
| 20260507041545 | 53 | 227 | 3.0 | 6.0 | 0.00 | 0.00 | 0.00 | 83 | 1022.1 |
| 20260507041026 | 53 | 202 | 3.0 | 7.0 | 0.00 | 0.00 | 0.00 | 83 | 1022.1 |
| 20260507040527 | 54 | 148 | 3.0 | 7.0 | 0.00 | 0.00 | 0.00 | 82 | 1022.0 |
| 20260507040042 | 54 | 247 | 3.0 | 6.0 | 0.00 | 0.00 | 0.00 | 83 | 1021.9 |
| 20260507035526 | 54 | 216 | 1.0 | 3.0 | 0.00 | 0.00 | 0.00 | 83 | 1021.9 |
| 20260507035026 | 54 | 226 | 1.0 | 9.0 | 0.00 | 0.00 | 0.00 | 84 | 1021.9 |
| 20260507034603 | 54 | 240 | 2.0 | 9.0 | 0.00 | 0.00 | 0.00 | 83 | 1021.9 |
| 20260507034027 | 54 | 200 | 2.0 | 9.0 | 0.00 | 0.00 | 0.00 | 84 | 1021.9 |
| 20260507033526 | 54 | 271 | 3.0 | 9.0 | 0.00 | 0.00 | 0.00 | 84 | 1021.8 |
| 20260507033100 | 54 | 229 | 3.0 | 9.0 | 0.00 | 0.00 | 0.00 | 84 | 1021.8 |
| 20260507032526 | 54 | 236 | 3.0 | 6.0 | 0.00 | 0.00 | 0.00 | 85 | 1021.8 |
| 20260507032025 | 54 | 208 | 1.0 | 6.0 | 0.00 | 0.00 | 0.00 | 85 | 1021.6 |
| 20260507031542 | 54 | 209 | 3.0 | 6.0 | 0.00 | 0.00 | 0.00 | 85 | 1021.6 |
| 20260507031026 | 54 | 219 | 2.0 | 5.0 | 0.00 | 0.00 | 0.00 | 85 | 1021.6 |
| 20260507030526 | 54 | 198 | 2.0 | 9.0 | 0.00 | 0.00 | 0.00 | 85 | 1021.5 |
| 20260507030041 | 55 | 173 | 3.0 | 9.0 | 0.00 | 0.00 | 0.00 | 84 | 1021.5 |